Regional Weather Roundup
Issued by NWS

Home | Current Version | Previous Version | Graphics & Text | Print | Product List | Glossary On
Versions: 1 2 3 4 5 6 7 8 9 10 11 12 13 14 15 16 17 18 19 20 21 22 23 24 25 26 27 28 29 30 31 32 33 34 35 36 37 38 39 40 41 42 43 44 45 46 47 48 49 50
693
ASUS43 KOAX 260210
RWRNE

WEATHER ROUNDUP FOR NEBRASKA
NATIONAL WEATHER SERVICE OMAHA NE
900 PM CDT TUE APR 25 2017

NOTES: SATELLITE DATA IS BEING USED TO AUGMENT CLOUD COVER ABOVE
       12000 FEET.
       "FAIR" INDICATES FEW OR NO CLOUDS BELOW 12,000 FEET WITH NO
       SIGNIFICANT WEATHER AND/OR OBSTRUCTIONS TO VISIBILITY.

  * THESE STATIONS DO NOT REPORT WEATHER SUCH AS RAIN...SNOW OR FOG.

NEZ001>004-019>022-054>056-260300-
NEBRASKA PANHANDLE

CITY           SKY/WX    TMP DP  RH WIND       PRES   REMARKS
SCOTTSBLUFF    CLOUDY    33  27  78 NE21      29.80R WCI  21
ALLIANCE       CLOUDY    31  26  82 N18       29.79R WCI  19
CHADRON        LGT SNOW  30  26  85 N13       29.86R FOG     WCI  20
KIMBALL        CLOUDY    37  33  86 N15G21    29.76R WCI  28
SIDNEY         CLOUDY    35  31  85 NE17      29.77R WCI  25
$$

NEZ057>060-069>072-079>082-260300-
SOUTHWEST NEBRASKA

CITY           SKY/WX    TMP DP  RH WIND       PRES   REMARKS
NORTH PLATTE   CLOUDY    38  32  79 N17G26    29.75R WCI  28
IMPERIAL       CLOUDY    40  34  79 NE18      29.74R WCI  31
LEXINGTON      CLOUDY    38  34  84 N16G24    29.72R WCI  29
MCCOOK         CLOUDY    42  36  79 NE14      29.71R
OGALLALA       CLOUDY    38  34  85 N15       29.77R WCI  30
$$

NEZ005>010-023>029-035>040-094-260300-
NORTH CENTRAL NEBRASKA

CITY           SKY/WX    TMP DP  RH WIND       PRES   REMARKS
VALENTINE      CLOUDY    33  27  78 N16G26    29.80R WCI  23
AINSWORTH      CLOUDY    32  31  96 N20G25    29.77R WCI  21
BROKEN BOW     CLOUDY    36  32  85 N25G31    29.72R WCI  24
O`NEILL        CLOUDY    37  32  85 N23G29    29.73R WCI  25
ORD            CLOUDY    38  33  82 N23       29.70R WCI  27
THEDFORD       CLOUDY    35  30  83 N16G22    29.78R WCI  25
$$

NEZ041-046>049-061>064-073>077-083>087-260300-
SOUTH CENTRAL NEBRASKA

CITY           SKY/WX    TMP DP  RH WIND       PRES   REMARKS
GRAND ISLAND   CLOUDY    39  37  92 N22       29.69R WCI  29
AURORA         CLOUDY    39  36  88 N23G30    29.66R WCI  29
HASTINGS       CLOUDY    40  36  86 N21       29.67R WCI  30
HEBRON         CLOUDY    43  37  79 N14G24    29.64R
HOLDREGE       CLOUDY    38  35  88 N16G22    29.69R WCI  29
KEARNEY *      CLOUDY    39  34  81 N17G23    29.70R WCI  30
YORK           CLOUDY    41  37  87 N14G21    29.65R
$$

NEZ011>018-030>034-042>045-260300-
NORTHEAST NEBRASKA

CITY           SKY/WX    TMP DP  RH WIND       PRES   REMARKS
NORFOLK        CLOUDY    37  33  85 NW22G29   29.64R WCI  26
ALBION         CLOUDY    38  34  85 N16G22    29.68R WCI  29
BLAIR          LGT RAIN  42  40  93 NW17G24   29.59R
FREMONT        CLOUDY    42  41  98 NW12G21   29.62R
TEKAMAH        LGT RAIN  43  40  89 N16       29.60R
WAYNE          CLOUDY    38  37  99 NW18G24   29.65R WCI  28
$$

NEZ050>053-065>068-078-088>093-260300-
SOUTHEAST NEBRASKA

CITY           SKY/WX    TMP DP  RH WIND       PRES   REMARKS
LINCOLN        CLOUDY    44  41  89 N17       29.63R
OMAHA EPPLEY   LGT RAIN  44  40  85 N17       29.59R
BEATRICE       CLOUDY    44  42  94 N15       29.61R
FALLS CITY     LGT RAIN  48  43  82 NW16G25   29.54R
NEBRASKA CITY  DRIZZLE   44  42  93 N17       29.57R
PLATTSMOUTH    DRIZZLE   44  41  90 NW15      29.58R
$$

NEZ044-045-051>053-067-260300-
OMAHA AREA

CITY           SKY/WX    TMP DP  RH WIND       PRES   REMARKS
OMAHA EPPLEY   LGT RAIN  44  40  85 N17       29.59R
BLAIR          LGT RAIN  42  40  93 NW17G24   29.59R
FREMONT        CLOUDY    42  41  98 NW12G21   29.62R
MILLARD        LGT RAIN  46  43  91 NW9G18    29.60R
OFFUTT AFB     LGT RAIN  44  42  90 N13G21    29.58R
PLATTSMOUTH    DRIZZLE   44  41  90 NW15      29.58R
WAHOO          CLOUDY    42  39  91 N20G30    29.61R
$$




USA.gov is the U.S. government's official web portal to all federal, state and local government web resources and services.